Location: Hurstbourne Priors
(51.2000°N, 1.3667°W)
Time: 19:35:37
(UTC+00:00)

Altair - Visible Passes

Search period start: 17 April 2021 00:00
Search period end: 27 April 2021 00:00
Orbit: 1501 x 1683 km, 47.2° (Epoch: 17 April)

Date Brightness Start Highest point End Pass type
(mag) Time Alt. Az. Time Alt. Az. Time Alt. Az.
17 Apr 9.7 04:18:05 10° SSE 04:21:53 13° SE 04:25:38 10° E visible
18 Apr 9.7 03:54:13 10° SE 03:56:54 11° ESE 03:59:33 10° ESE visible
22 Apr 9.0 04:11:07 10° SSW 04:19:07 29° SE 04:26:53 10° E visible
23 Apr 9.0 03:46:17 10° S 03:54:03 27° SE 04:01:38 10° E visible
24 Apr 9.0 03:21:29 10° S 03:29:00 25° SE 03:36:20 10° E visible
25 Apr 9.0 02:56:44 10° S 03:03:57 23° SE 03:11:02 10° E visible
26 Apr 9.1 02:32:02 10° S 02:38:55 21° SE 02:45:40 10° E visible
